Location: Castelnau
(43.6639°N, 0.8431°W)
Time: 16:59:20
(UTC+00:00)

BREEZE M DEB (TANK) - Pass Details

Date: 13 January 2026
Orbit: 288 x 11207 km, 49.5° (Epoch: 10 February)

Event Time Altitude Azimuth Distance (km) Brightness Sun altitude
Exits shadow 05:22:12 43° 25° (NNE) 724 2.9 -23.4°
Drops below altitude 10° 05:27:34 10° 95° (E) 2,915 7.1 -22.5°
Sets 05:32:25 0° 101° (ESE) 5,104 8.8 -21.6°
